Weather Roundup
Issued by NWS

Home | Current Version | Previous Version | Graphics & Text | Print | Product List | Glossary Off
Versions: 1 2 3 4 5 6 7 8 9 10 11 12 13 14 15 16 17 18 19 20 21 22 23 24 25 26 27 28 29 30 31 32 33 34 35 36 37 38 39 40 41 42 43 44 45 46 47 48 49 50

000
NZUS93 KARX 110410
HRRWXR

CURRENT HOURLY OBSERVATIONS ACROSS
MUCH OF THE UPPER MISSISSIPPI VALLEY
NATIONAL WEATHER SERVICE LA CROSSE WI
1100 PM CDT THU JUL 10 2014


...SOUTHEAST MINNESOTA...


CITY           SKY/WX    TMP DP  RH WIND       PRES   REMARKS
ROCHESTER      CLEAR     68  59  73 S10       30.08R
ROCHESTER/MAYO FAIR      71  56  60 SE8       30.06S
WINONA         PTCLDY    73  59  60 S8        30.05F
AUSTIN         CLEAR     72  57  60 S6        30.06S
ALBERT LEA     MOCLDY    73  57  56 S10       30.05R
DODGE CENTER   CLEAR     70  61  73 S10       30.06S
PRESTON        CLEAR     67  60  78 S7        30.09S
OWATONNA       PTCLDY    73  57  56 S9        30.03S
FARIBAULT      PTCLDY    75  55  50 S12       30.02S
$$

...ELSEWHERE IN MINNESOTA...


CITY           SKY/WX    TMP DP  RH WIND       PRES   REMARKS
MINNEAPOLIS    MOCLDY    76  59  55 S14       29.99S
INTNL FALLS    MOCLDY    64  58  80 SE3       29.91F
DULUTH         PTCLDY    61  52  72 SE8       30.00S
RED WING       PTCLDY    75  57  53 S8        30.02R
REDWOOD FALLS  CLOUDY    76  63  64 S15       29.93S
MANKATO        CLOUDY    73  57  56 S10G16    29.99S
WORTHINGTON    CLOUDY    72  64  78 S13G18    29.98S
FAIRMONT       CLOUDY    73  55  53 S15       30.00F
$$

...SOUTHWEST WISCONSIN...


CITY           SKY/WX    TMP DP  RH WIND       PRES   REMARKS
LA CROSSE      MOCLDY    73  63  70 S8        30.07R HAZE
PRAIRIE DU CHI PTCLDY    68  60  74 E5        30.10S
BOSCOBEL       PTCLDY    69  62  78 CALM      30.11R
LONE ROCK      MOCLDY    70  62  76 E5        30.12R
PLATTEVILLE    CLOUDY    66  62  85 SE6       30.15R
FORT MC COY    MOCLDY    71  59  67 S5        30.09F
CAMP DOUGLAS   MOCLDY    62  62 100 S3        30.10S
VIROQUA        FAIR      69  61  77 S7        30.11S
WIS DELLS      CLOUDY    66  60  81 S5        30.12S
$$

...ELSEWHERE IN WISCONSIN...


CITY           SKY/WX    TMP DP  RH WIND       PRES   REMARKS
MILWAUKEE      PTCLDY    64  50  60 S5        30.17F
MADISON        CLOUDY    72  60  66 S6        30.14R
GREEN BAY      CLEAR     63  52  67 S6        30.14S
EAU CLAIRE     PTCLDY    72  65  78 S9        30.05R
BLACK RVR FLS  FAIR      65  63  93 CALM      30.07S
MEDFORD        CLOUDY    66  63  89 S6        30.09F
WAUSAU         MOCLDY    69  61  75 S7        30.09R
WIS RAPIDS     CLOUDY    69  62  78 S6        30.11S
MARSHFIELD     CLOUDY    69  63  81 S7        30.09S
RICE LAKE      MOCLDY    69  63  82 SE7       30.05S
$$

...NORTHEAST IOWA...


CITY           SKY/WX    TMP DP  RH WIND       PRES   REMARKS
WATERLOO       MOCLDY    72  58  61 S13       30.07S
DUBUQUE        MOCLDY    65  61  87 S7        30.13S
DECORAH          N/A    N/A N/A N/A MISG        N/A
MASON CITY     MOCLDY    70  60  70 S10       30.08R
CHARLES CITY   MOCLDY    70  59  68 S8        30.09R
OELWEIN        PTCLDY    64  64 100 SE10      30.11S
$$

...ELSEWHERE IN IOWA...


CITY           SKY/WX    TMP DP  RH WIND       PRES   REMARKS
DES MOINES     PTCLDY    71  60  68 SE12      30.06S
IOWA CITY      MOCLDY    67  62  84 S5        30.13R
FORT DODGE     MOCLDY    72  59  64 S10G17    30.04F
MARSHALLTOWN   MOCLDY    69  57  65 SE12      30.07F
CEDAR RAPIDS   MOCLDY    66  59  78 S5        30.11R
$$

...NORTHERN ILLINOIS...


CITY           SKY/WX    TMP DP  RH WIND       PRES   REMARKS
CHICAGO-OHARE  PTCLDY    68  47  46 SE6       30.17S
DUPAGE         CLEAR     66  50  56 SE3       30.17R
CHICAGO-MIDWAY PTCLDY    70  52  52 E5        30.17S
MOLINE         MOCLDY    67  60  78 S7        30.13S
ROCKFORD       MOCLDY    67  57  70 SE10      30.16S
STERLING       MOCLDY    66  57  72 CALM      30.16R
PEORIA         PTCLDY    67  58  72 CALM      30.16R
$$

NOTE: "FAIR" INDICATES FEW OR NO CLOUDS BELOW 12,000 FEET WITH NO
SIGNIFICANT WEATHER AND/OR OBSTRUCTIONS TO VISIBILITY. WIND
SPEEDS ARE IN MILES-PER-HOUR.



USA.gov is the U.S. government's official web portal to all federal, state and local government web resources and services.